{"data":{"norad_id":63276,"epoch":"2026-05-24T21:54:21.000384Z","epoch_age_seconds":76388,"freshness":"FRESH","line1":"1 63276U 25053M   26144.91274306  .00182258  00000+0  13879-2 0  9993","line2":"2 63276  42.9953  13.1184 0002172 262.9286  97.1334 15.70925851 69648","mean_motion":15.70925851,"eccentricity":0.0002172,"inclination_deg":42.9953,"raan_deg":13.1184,"arg_perigee_deg":262.9286,"mean_anomaly_deg":97.1334,"bstar":0.0013879,"rev_number":6964,"period_min":91.665688681827,"perigee_km":354.78698572821,"apogee_km":357.71240330831,"semimajor_km":6734.3866945183,"source":"CELESTRAK","updated_at":"2026-05-25T13:38:19.926619Z"}}